Weather Roundup
Issued by NWS

Home | Current Version | Previous Version | Graphics & Text | Print | Product List | Glossary Off
Versions: 1 2 3 4 5 6 7 8 9 10 11 12 13 14 15 16 17 18 19 20 21 22 23 24 25 26 27 28 29 30 31 32 33 34 35 36 37 38 39 40 41 42 43 44 45 46 47 48 49 50

000
NZUS93 KARX 181059
HRRWXR

CURRENT HOURLY OBSERVATIONS ACROSS
MUCH OF THE UPPER MISSISSIPPI VALLEY
NATIONAL WEATHER SERVICE LA CROSSE WI
600 AM CDT SAT APR 18 2015


...SOUTHEAST MINNESOTA...


CITY           SKY/WX    TMP DP  RH WIND       PRES   REMARKS
ROCHESTER      PTCLDY    46  36  68 SE5       30.06S
ROCHESTER/MAYO FAIR      49  41  74 CALM      30.06R
WINONA         PTCLDY    46  41  81 CALM      30.07R
AUSTIN         PTCLDY    48  37  66 CALM      30.04S
ALBERT LEA     MOCLDY    52  36  54 E5        30.04S
DODGE CENTER   MOCLDY    46  34  61 E3        30.05R
PRESTON        PTCLDY    53  35  49 CALM      30.06S
OWATONNA       MOCLDY    41  34  75 CALM      30.06R
FARIBAULT      MOCLDY    46  34  61 N6        30.05R
$$

...ELSEWHERE IN MINNESOTA...


CITY           SKY/WX    TMP DP  RH WIND       PRES   REMARKS
MINNEAPOLIS    PTCLDY    54  29  38 NE12      30.08R
INTNL FALLS    CLEAR     29  25  85 NE7       30.22S WCI  22
DULUTH         CLEAR     40  29  64 E13G20    30.17R WCI  32
RED WING       PTCLDY    48  30  49 SE7       30.07S
REDWOOD FALLS  MOCLDY    47  24  40 NE6       30.05S
MANKATO        MOCLDY    55  30  38 N3        30.05S
WORTHINGTON    MOCLDY    48  27  43 NE8       30.03S
FAIRMONT       MOCLDY    48  27  43 CALM      30.03S
$$

...SOUTHWEST WISCONSIN...


CITY           SKY/WX    TMP DP  RH WIND       PRES   REMARKS
LA CROSSE      PTCLDY    49  43  80 CALM      30.07R
PRAIRIE DU CHI PTCLDY    48  43  84 CALM      30.04S
BOSCOBEL       CLEAR     45  42  89 CALM      30.05R
LONE ROCK      NOT AVBL
PLATTEVILLE    CLEAR     59  41  51 NE10      30.03S
FORT MC COY    PTCLDY    33  33  99 CALM      30.08R
VIROQUA        FAIR      54  32  43 NE6       30.05S
WIS DELLS      CLEAR     46  40  79 CALM      30.06R
$$

...ELSEWHERE IN WISCONSIN...


CITY           SKY/WX    TMP DP  RH WIND       PRES   REMARKS
MILWAUKEE      PTCLDY    53  42  66 N6        30.04R
MADISON        MOCLDY    45  42  89 CALM      30.04R
GREEN BAY      CLEAR     48  37  65 NE16      30.12R
EAU CLAIRE     NOT AVBL
BLACK RVR FLS  FAIR      31  31 100 CALM      30.08R
MEDFORD        CLEAR     45  31  58 NE10      30.10S
WAUSAU         CLEAR     47  29  49 N5        30.10R
WIS RAPIDS     CLEAR     51  28  41 NE10      30.10R
MARSHFIELD     CLEAR     48  30  49 NE13      30.11R
RICE LAKE      CLEAR     45  31  57 NE7       30.13R
$$

...NORTHEAST IOWA...


CITY           SKY/WX    TMP DP  RH WIND       PRES   REMARKS
DECORAH        CLOUDY    52  45  76 CALM      30.04R
MASON CITY     PTCLDY    47  40  76 E8        30.04S
CHARLES CITY   PTCLDY    55  41  58 NE9       30.04S
OELWEIN        CLEAR     54  45  71 NE8       30.03S
$$

...ELSEWHERE IN IOWA...


CITY           SKY/WX    TMP DP  RH WIND       PRES   REMARKS
DES MOINES     CLOUDY    63  56  78 E7        29.97F
IOWA CITY      CLOUDY    50  48  93 CALM      30.00F
FORT DODGE     CLOUDY    54  45  71 E8        30.00S
$$

...NORTHERN ILLINOIS...


CITY           SKY/WX    TMP DP  RH WIND       PRES   REMARKS
CHICAGO-OHARE  PTCLDY    55  47  74 N3        30.02R
CHICAGO-MIDWAY MOCLDY    61  50  67 CALM      30.02R
MOLINE         PTCLDY    52  46  80 CALM      29.99F
ROCKFORD       PTCLDY    52  47  83 CALM      30.05R
PEORIA         MOCLDY    59  52  77 S3        30.02R
$$

NOTE: "FAIR" INDICATES FEW OR NO CLOUDS BELOW 12,000 FEET WITH NO
SIGNIFICANT WEATHER AND/OR OBSTRUCTIONS TO VISIBILITY. WIND
SPEEDS ARE IN MILES-PER-HOUR.



USA.gov is the U.S. government's official web portal to all federal, state and local government web resources and services.